QPF
0.01 0.00 0.00 0.00 0.00 0.00 0.00 0.00 0.00 0.00 0.00 0.00 0.00 0.00 0.00 0.00 0.00 0.00 0.01 0.01 0.00 0.00 0.00 0.00 0.00 0.00 0.00 0.00 0.00 0.00 0.01 0.01 0.01 0.01 0.01 0.01 0.00 0.00 0.00 0.00 0.00 0.00 0.01 0.02
0.02 0.01 0.00 0.00 0.00 0.00 0.00 0.00 0.00 0.00 0.00 0.00 0.00 0.00 0.00 0.00 0.00 0.00 0.01 0.01 0.01 0.01 0.00 0.01 0.01 0.01 0.01 0.00 0.00 0.00 0.00 0.01 0.01 0.01 0.01 0.01 0.01 0.01 0.01 0.01 0.00 0.00 0.01 0.02
0.02 0.02 0.01 0.00 0.00 0.00 0.00 0.00 0.00 0.01 0.00 0.00 0.01 0.01 0.00 0.00 0.00 0.00 0.01 0.01 0.01 0.01 0.01 0.01 0.01 0.01 0.01 0.01 0.01 0.01 0.01 0.01 0.01 0.01 0.01 0.01 0.02 0.01 0.01 0.01 0.00 0.00 0.00 0.00
0.01 0.02 0.02 0.00 0.00 0.00 0.00 0.00 0.00 0.00 0.00 0.01 0.02 0.01 0.01 0.01 0.01 0.01 0.01 0.01 0.02 0.02 0.02 0.01 0.01 0.01 0.01 0.01 0.01 0.01 0.01 0.02 0.03 0.03 0.03 0.03 0.03 0.03 0.02 0.01 0.00 0.00 0.00 0.00
0.03 0.02 0.01 0.00 0.00 0.00 0.01 0.01 0.00 0.00 0.00 0.00 0.01 0.01 0.01 0.01 0.01 0.01 0.02 0.02 0.02 0.02 0.02 0.02 0.01 0.02 0.02 0.01 0.01 0.01 0.01 0.02 0.02 0.03 0.03 0.03 0.03 0.02 0.02 0.01 0.01 0.00 0.00 0.00
0.04 0.03 0.02 0.01 0.00 0.00 0.01 0.03 0.00 0.00 0.00 0.01 0.01 0.02 0.01 0.01 0.01 0.01 0.01 0.02 0.01 0.01 0.01 0.01 0.01 0.02 0.02 0.02 0.02 0.02 0.02 0.02 0.02 0.02 0.02 0.02 0.02 0.02 0.02 0.01 0.01 0.00 0.00 0.00
0.04 0.03 0.02 0.01 0.01 0.01 0.03 0.03 0.01 0.01 0.01 0.01 0.01 0.01 0.02 0.02 0.02 0.01 0.01 0.02 0.02 0.01 0.01 0.01 0.01 0.02 0.02 0.02 0.02 0.02 0.02 0.02 0.02 0.02 0.02 0.02 0.02 0.02 0.01 0.01 0.01 0.00 0.00 0.00
0.05 0.05 0.03 0.01 0.01 0.02 0.02 0.01 0.00 0.00 0.01 0.01 0.01 0.01 0.01 0.02 0.02 0.02 0.02 0.01 0.01 0.01 0.01 0.01 0.02 0.02 0.02 0.02 0.02 0.02 0.02 0.02 0.02 0.02 0.02 0.02 0.02 0.02 0.01 0.01 0.01 0.01 0.01 0.00
0.04 0.03 0.02 0.01 0.01 0.01 0.01 0.01 0.01 0.00 0.01 0.01 0.01 0.01 0.01 0.01 0.01 0.01 0.02 0.01 0.01 0.02 0.02 0.02 0.02 0.02 0.02 0.03 0.03 0.03 0.03 0.03 0.03 0.03 0.03 0.03 0.03 0.02 0.02 0.02 0.01 0.01 0.01 0.00
0.03 0.03 0.02 0.01 0.01 0.02 0.02 0.01 0.01 0.01 0.01 0.02 0.02 0.01 0.01 0.01 0.01 0.01 0.01 0.01 0.01 0.01 0.02 0.02 0.02 0.02 0.02 0.03 0.03 0.03 0.03 0.03 0.03 0.03 0.03 0.02 0.02 0.02 0.01 0.01 0.01 0.01 0.01 0.01
0.03 0.02 0.02 0.02 0.02 0.02 0.02 0.02 0.02 0.02 0.02 0.02 0.02 0.02 0.01 0.01 0.02 0.01 0.01 0.01 0.01 0.02 0.03 0.04 0.04 0.04 0.04 0.03 0.03 0.03 0.03 0.03 0.02 0.02 0.01 0.01 0.01 0.01 0.02 0.02 0.02 0.02 0.01 0.01
0.04 0.02 0.02 0.05 0.05 0.05 0.04 0.03 0.03 0.04 0.03 0.02 0.01 0.01 0.01 0.01 0.01 0.01 0.01 0.01 0.02 0.02 0.03 0.04 0.04 0.04 0.04 0.04 0.04 0.04 0.04 0.04 0.03 0.02 0.02 0.02 0.02 0.03 0.03 0.02 0.02 0.01 0.01 0.00
0.03 0.02 0.03 0.07 0.07 0.07 0.06 0.05 0.04 0.05 0.05 0.05 0.06 0.04 0.03 0.02 0.01 0.01 0.01 0.02 0.02 0.02 0.02 0.03 0.03 0.03 0.03 0.03 0.03 0.03 0.03 0.03 0.03 0.03 0.03 0.02 0.02 0.01 0.01 0.01 0.01 0.00 0.00 0.00
0.04 0.03 0.05 0.05 0.05 0.06 0.06 0.04 0.04 0.03 0.03 0.02 0.03 0.04 0.04 0.03 0.02 0.01 0.01 0.01 0.01 0.01 0.01 0.01 0.02 0.02 0.03 0.03 0.03 0.03 0.03 0.03 0.02 0.02 0.02 0.01 0.01 0.01 0.01 0.01 0.01 0.01 0.01 0.00
0.07 0.07 0.08 0.07 0.04 0.05 0.05 0.04 0.04 0.03 0.02 0.02 0.02 0.02 0.02 0.02 0.01 0.01 0.01 0.00 0.00 0.00 0.00 0.01 0.01 0.01 0.02 0.02 0.02 0.02 0.02 0.02 0.02 0.02 0.02 0.02 0.02 0.02 0.02 0.01 0.01 0.01 0.01 0.00
0.06 0.05 0.05 0.06 0.06 0.05 0.05 0.04 0.03 0.02 0.01 0.01 0.01 0.01 0.01 0.01 0.01 0.00 0.00 0.00 0.00 0.00 0.00 0.01 0.00 0.01 0.01 0.01 0.02 0.02 0.03 0.03 0.03 0.02 0.02 0.03 0.03 0.03 0.03 0.03 0.02 0.02 0.01 0.01
0.05 0.04 0.04 0.04 0.04 0.04 0.03 0.03 0.02 0.01 0.01 0.00 0.00 0.00 0.00 0.00 0.00 0.00 0.00 0.00 0.00 0.00 0.00 0.00 0.00 0.00 0.00 0.00 0.01 0.01 0.01 0.01 0.02 0.02 0.02 0.02 0.02 0.02 0.01 0.01 0.01 0.00 0.00 0.00
0.03 0.03 0.03 0.03 0.03 0.02 0.02 0.02 0.01 0.01 0.01 0.01 0.01 0.00 0.00 0.00 0.00 0.00 0.00 0.00 0.00 0.00 0.00 0.00 0.00 0.00 0.00 0.00 0.00 0.00 0.00 0.00 0.00 0.00 0.00 0.00 0.00 0.00 0.00 0.00 0.00 0.00 0.00 0.00
0.01 0.02 0.01 0.01 0.01 0.01 0.01 0.01 0.01 0.01 0.01 0.01 0.01 0.01 0.01 0.00 0.00 0.00 0.00 0.00 0.00 0.00 0.00 0.00 0.00 0.00 0.00 0.00 0.00 0.00 0.00 0.00 0.00 0.00 0.00 0.00 0.00 0.00 0.00 0.00 0.00 0.00 0.00 0.00
0.02 0.02 0.02 0.02 0.01 0.00 0.01 0.01 0.03 0.04 0.03 0.03 0.02 0.02 0.01 0.00 0.00 0.00 0.00 0.00 0.00 0.00 0.00 0.00 0.00 0.00 0.00 0.00 0.00 0.00 0.00 0.00 0.00 0.00 0.00 0.00 0.00 0.00 0.00 0.01 0.00 0.00 0.00 0.00
0.01 0.01 0.01 0.01 0.01 0.00 0.00 0.01 0.01 0.02 0.02 0.02 0.02 0.01 0.01 0.00 0.00 0.00 0.00 0.00 0.00 0.00 0.00 0.00 0.00 0.00 0.00 0.00 0.00 0.00 0.00 0.00 0.01 0.00 0.00 0.00 0.00 0.00 0.00 0.00 0.00 0.00 0.01 0.01
0.00 0.00 0.00 0.00 0.01 0.01 0.00 0.00 0.00 0.00 0.01 0.01 0.00 0.00 0.00 0.00 0.00 0.00 0.00 0.00 0.00 0.00 0.00 0.00 0.00 0.00 0.00 0.00 0.00 0.00 0.00 0.00 0.00 0.00 0.00 0.00 0.00 0.00 0.00 0.01 0.01 0.01 0.02 0.02
0.00 0.00 0.00 0.00 0.00 0.00 0.00 0.00 0.00 0.00 0.00 0.00 0.00 0.00 0.00 0.00 0.00 0.00 0.00 0.00 0.00 0.00 0.00 0.00 0.00 0.00 0.00 0.00 0.00 0.00 0.00 0.00 0.00 0.00 0.00 0.00 0.00 0.00 0.01 0.01 0.01 0.02 0.04 0.05
0.01 0.01 0.00 0.00 0.00 0.00 0.00 0.00 0.00 0.00 0.00 0.00 0.00 0.00 0.00 0.00 0.00 0.00 0.00 0.00 0.00 0.00 0.00 0.00 0.00 0.00 0.00 0.00 0.00 0.00 0.00 0.00 0.00 0.00 0.00 0.00 0.01 0.01 0.01 0.02 0.03 0.04 0.05 0.06
0.02 0.01 0.00 0.00 0.00 0.00 0.00 0.00 0.00 0.00 0.00 0.00 0.00 0.00 0.00 0.00 0.00 0.00 0.00 0.00 0.00 0.00 0.00 0.00 0.00 0.00 0.00 0.00 0.00 0.00 0.00 0.00 0.00 0.00 0.00 0.01 0.01 0.01 0.02 0.03 0.03 0.04 0.05 0.07
0.00 0.00 0.00 0.00 0.00 0.00 0.00 0.00 0.00 0.00 0.00 0.00 0.00 0.00 0.00 0.00 0.00 0.01 0.01 0.00 0.00 0.00 0.00 0.00 0.00 0.00 0.00 0.00 0.00 0.00 0.01 0.01 0.01 0.01 0.01 0.01 0.01 0.01 0.01 0.02 0.03 0.03 0.05 0.07
0.00 0.00 0.00 0.00 0.00 0.00 0.00 0.00 0.00 0.00 0.01 0.01 0.01 0.01 0.01 0.01 0.01 0.00 0.00 0.00 0.01 0.01 0.00 0.00 0.00 0.00 0.00 0.01 0.01 0.01 0.01 0.01 0.01 0.01 0.02 0.02 0.02 0.02 0.03 0.03 0.03 0.05 0.06 0.07
MSLP
1008.51 1008.66 1008.79 1008.88 1008.96 1009.03 1009.09 1009.12 1009.14 1009.12 1009.08 1009.00 1008.90 1008.79 1008.68 1008.59 1008.53 1008.52 1008.55 1008.64 1008.78 1008.98 1009.22 1009.51 1009.85 1010.23 1010.64 1011.08 1011.55 1012.04 1012.53 1013.01 1013.49 1013.95 1014.39 1014.81 1015.20 1015.58 1015.93 1016.26 1016.56 1016.83 1017.06 1017.26
1008.58 1008.63 1008.63 1008.61 1008.59 1008.58 1008.61 1008.68 1008.77 1008.89 1009.02 1009.14 1009.23 1009.30 1009.33 1009.33 1009.30 1009.25 1009.20 1009.16 1009.15 1009.18 1009.26 1009.40 1009.61 1009.89 1010.22 1010.61 1011.04 1011.50 1011.97 1012.44 1012.90 1013.35 1013.78 1014.18 1014.57 1014.94 1015.29 1015.61 1015.91 1016.18 1016.41 1016.60
1008.75 1008.68 1008.56 1008.43 1008.31 1008.25 1008.25 1008.35 1008.53 1008.78 1009.07 1009.39 1009.68 1009.94 1010.12 1010.22 1010.23 1010.18 1010.06 1009.90 1009.75 1009.61 1009.53 1009.51 1009.58 1009.73 1009.97 1010.28 1010.65 1011.06 1011.50 1011.94 1012.37 1012.79 1013.18 1013.56 1013.92 1014.25 1014.57 1014.87 1015.15 1015.40 1015.62 1015.81
1008.93 1008.75 1008.52 1008.29 1008.09 1007.98 1007.97 1008.10 1008.36 1008.73 1009.17 1009.66 1010.14 1010.57 1010.90 1011.11 1011.19 1011.15 1010.99 1010.76 1010.49 1010.22 1009.99 1009.84 1009.77 1009.80 1009.94 1010.17 1010.47 1010.82 1011.20 1011.59 1011.98 1012.34 1012.68 1013.00 1013.30 1013.58 1013.84 1014.09 1014.33 1014.55 1014.75 1014.93
1009.02 1008.75 1008.43 1008.12 1007.87 1007.73 1007.72 1007.88 1008.20 1008.67 1009.25 1009.88 1010.51 1011.08 1011.55 1011.87 1012.03 1012.02 1011.87 1011.60 1011.27 1010.92 1010.59 1010.33 1010.17 1010.11 1010.16 1010.32 1010.55 1010.84 1011.15 1011.48 1011.79 1012.07 1012.33 1012.57 1012.77 1012.97 1013.15 1013.33 1013.51 1013.68 1013.85 1014.01
1008.92 1008.57 1008.21 1007.87 1007.60 1007.46 1007.48 1007.68 1008.05 1008.59 1009.26 1009.99 1010.74 1011.42 1011.99 1012.41 1012.64 1012.69 1012.58 1012.33 1011.99 1011.61 1011.25 1010.95 1010.74 1010.63 1010.63 1010.73 1010.90 1011.12 1011.37 1011.61 1011.83 1012.02 1012.17 1012.29 1012.39 1012.47 1012.56 1012.65 1012.76 1012.88 1013.01 1013.15
1008.57 1008.20 1007.84 1007.52 1007.29 1007.19 1007.25 1007.50 1007.93 1008.52 1009.24 1010.03 1010.84 1011.59 1012.23 1012.71 1013.02 1013.13 1013.08 1012.88 1012.59 1012.25 1011.91 1011.63 1011.42 1011.30 1011.28 1011.35 1011.48 1011.64 1011.81 1011.97 1012.08 1012.15 1012.18 1012.17 1012.14 1012.11 1012.08 1012.09 1012.12 1012.18 1012.28 1012.40
1008.00 1007.67 1007.37 1007.12 1006.97 1006.95 1007.09 1007.40 1007.88 1008.51 1009.25 1010.06 1010.87 1011.64 1012.31 1012.83 1013.18 1013.36 1013.38 1013.26 1013.05 1012.79 1012.53 1012.31 1012.15 1012.06 1012.06 1012.11 1012.21 1012.32 1012.41 1012.47 1012.47 1012.42 1012.32 1012.18 1012.02 1011.87 1011.74 1011.65 1011.61 1011.63 1011.69 1011.79
1007.32 1007.07 1006.88 1006.76 1006.74 1006.85 1007.09 1007.48 1008.00 1008.64 1009.38 1010.16 1010.94 1011.68 1012.32 1012.84 1013.22 1013.44 1013.53 1013.49 1013.38 1013.23 1013.07 1012.94 1012.85 1012.83 1012.85 1012.91 1012.99 1013.04 1013.07 1013.03 1012.92 1012.75 1012.53 1012.26 1011.98 1011.72 1011.50 1011.34 1011.24 1011.21 1011.25 1011.32
1006.68 1006.56 1006.51 1006.56 1006.70 1006.95 1007.31 1007.78 1008.34 1008.99 1009.69 1010.42 1011.13 1011.79 1012.37 1012.85 1013.21 1013.45 1013.59 1013.63 1013.61 1013.56 1013.51 1013.48 1013.48 1013.51 1013.57 1013.64 1013.70 1013.71 1013.66 1013.54 1013.34 1013.06 1012.72 1012.35 1011.98 1011.63 1011.34 1011.11 1010.97 1010.91 1010.92 1010.98
1006.24 1006.26 1006.38 1006.60 1006.91 1007.31 1007.79 1008.34 1008.93 1009.57 1010.22 1010.86 1011.47 1012.03 1012.51 1012.92 1013.24 1013.47 1013.62 1013.72 1013.78 1013.81 1013.86 1013.91 1013.98 1014.07 1014.16 1014.23 1014.26 1014.23 1014.12 1013.92 1013.63 1013.27 1012.85 1012.41 1011.96 1011.56 1011.21 1010.95 1010.77 1010.68 1010.67 1010.70
1006.14 1006.29 1006.56 1006.94 1007.40 1007.93 1008.51 1009.12 1009.73 1010.33 1010.91 1011.45 1011.95 1012.39 1012.76 1013.07 1013.32 1013.52 1013.67 1013.79 1013.90 1013.99 1014.10 1014.21 1014.33 1014.44 1014.54 1014.60 1014.60 1014.53 1014.37 1014.11 1013.77 1013.35 1012.88 1012.39 1011.91 1011.47 1011.10 1010.81 1010.61 1010.49 1010.44 1010.43
1006.40 1006.66 1007.05 1007.54 1008.12 1008.74 1009.38 1010.02 1010.62 1011.18 1011.68 1012.13 1012.50 1012.82 1013.08 1013.29 1013.47 1013.61 1013.74 1013.86 1013.98 1014.11 1014.24 1014.38 1014.51 1014.63 1014.72 1014.75 1014.72 1014.61 1014.41 1014.11 1013.74 1013.29 1012.81 1012.31 1011.82 1011.37 1010.99 1010.69 1010.46 1010.30 1010.20 1010.13
1007.01 1007.33 1007.78 1008.34 1008.96 1009.62 1010.29 1010.92 1011.49 1012.00 1012.42 1012.77 1013.04 1013.24 1013.40 1013.52 1013.62 1013.72 1013.81 1013.91 1014.03 1014.15 1014.29 1014.42 1014.54 1014.64 1014.69 1014.69 1014.62 1014.47 1014.24 1013.93 1013.55 1013.11 1012.64 1012.16 1011.69 1011.26 1010.88 1010.57 1010.31 1010.11 1009.95 1009.80
1007.86 1008.20 1008.65 1009.21 1009.83 1010.48 1011.12 1011.72 1012.24 1012.68 1013.03 1013.29 1013.47 1013.59 1013.66 1013.71 1013.75 1013.80 1013.85 1013.93 1014.02 1014.12 1014.23 1014.33 1014.41 1014.47 1014.48 1014.43 1014.33 1014.15 1013.91 1013.60 1013.24 1012.84 1012.41 1011.97 1011.55 1011.15 1010.79 1010.46 1010.18 1009.93 1009.69 1009.44
1008.85 1009.15 1009.56 1010.07 1010.64 1011.23 1011.81 1012.34 1012.80 1013.18 1013.46 1013.64 1013.76 1013.81 1013.82 1013.82 1013.82 1013.82 1013.84 1013.88 1013.94 1014.00 1014.07 1014.12 1014.15 1014.14 1014.10 1014.01 1013.87 1013.68 1013.44 1013.15 1012.83 1012.49 1012.13 1011.76 1011.40 1011.04 1010.70 1010.38 1010.06 1009.75 1009.43 1009.09
1009.87 1010.09 1010.42 1010.85 1011.33 1011.84 1012.34 1012.79 1013.18 1013.49 1013.71 1013.84 1013.90 1013.91 1013.88 1013.84 1013.80 1013.78 1013.76 1013.77 1013.78 1013.79 1013.80 1013.79 1013.76 1013.69 1013.59 1013.45 1013.29 1013.09 1012.86 1012.62 1012.35 1012.08 1011.80 1011.52 1011.23 1010.94 1010.63 1010.31 1009.97 1009.60 1009.20 1008.76
1010.83 1010.97 1011.21 1011.53 1011.91 1012.33 1012.74 1013.11 1013.43 1013.68 1013.84 1013.93 1013.95 1013.92 1013.87 1013.80 1013.73 1013.66 1013.61 1013.57 1013.54 1013.50 1013.44 1013.37 1013.27 1013.14 1012.98 1012.81 1012.62 1012.42 1012.21 1012.02 1011.82 1011.63 1011.44 1011.25 1011.04 1010.81 1010.55 1010.25 1009.89 1009.48 1009.01 1008.49
1011.71 1011.76 1011.91 1012.13 1012.42 1012.74 1013.07 1013.37 1013.62 1013.80 1013.92 1013.96 1013.95 1013.89 1013.80 1013.70 1013.59 1013.49 1013.40 1013.32 1013.23 1013.13 1013.01 1012.87 1012.71 1012.53 1012.32 1012.12 1011.91 1011.72 1011.54 1011.39 1011.27 1011.16 1011.06 1010.96 1010.83 1010.67 1010.46 1010.17 1009.82 1009.38 1008.87 1008.29
1012.48 1012.47 1012.54 1012.68 1012.89 1013.13 1013.39 1013.62 1013.80 1013.93 1014.00 1013.99 1013.94 1013.83 1013.71 1013.56 1013.42 1013.28 1013.14 1013.00 1012.86 1012.71 1012.54 1012.35 1012.14 1011.91 1011.67 1011.44 1011.23 1011.04 1010.89 1010.79 1010.72 1010.68 1010.66 1010.64 1010.59 1010.50 1010.33 1010.09 1009.74 1009.30 1008.77 1008.15
1013.16 1013.09 1013.11 1013.20 1013.34 1013.52 1013.71 1013.88 1014.01 1014.08 1014.08 1014.03 1013.91 1013.76 1013.58 1013.39 1013.20 1013.01 1012.83 1012.65 1012.47 1012.27 1012.07 1011.84 1011.60 1011.35 1011.09 1010.85 1010.63 1010.46 1010.33 1010.26 1010.24 1010.25 1010.29 1010.33 1010.35 1010.31 1010.19 1009.98 1009.66 1009.24 1008.70 1008.08
1013.73 1013.64 1013.62 1013.67 1013.77 1013.90 1014.03 1014.13 1014.20 1014.20 1014.14 1014.02 1013.85 1013.63 1013.40 1013.15 1012.92 1012.69 1012.47 1012.26 1012.06 1011.85 1011.63 1011.40 1011.15 1010.90 1010.65 1010.41 1010.20 1010.03 1009.92 1009.87 1009.87 1009.91 1009.99 1010.07 1010.12 1010.12 1010.05 1009.87 1009.59 1009.18 1008.67 1008.06
1014.19 1014.08 1014.04 1014.06 1014.12 1014.20 1014.27 1014.32 1014.31 1014.25 1014.12 1013.93 1013.69 1013.41 1013.13 1012.84 1012.56 1012.30 1012.07 1011.86 1011.66 1011.47 1011.27 1011.06 1010.84 1010.62 1010.39 1010.17 1009.97 1009.82 1009.71 1009.66 1009.66 1009.71 1009.79 1009.88 1009.95 1009.97 1009.92 1009.78 1009.52 1009.15 1008.67 1008.09
1014.52 1014.41 1014.35 1014.34 1014.36 1014.39 1014.41 1014.38 1014.31 1014.17 1013.97 1013.71 1013.41 1013.08 1012.75 1012.43 1012.14 1011.88 1011.66 1011.48 1011.32 1011.17 1011.02 1010.87 1010.71 1010.53 1010.34 1010.15 1009.98 1009.83 1009.72 1009.66 1009.64 1009.67 1009.72 1009.79 1009.85 1009.87 1009.83 1009.71 1009.48 1009.15 1008.70 1008.17
1014.73 1014.61 1014.53 1014.49 1014.47 1014.45 1014.40 1014.31 1014.16 1013.95 1013.68 1013.37 1013.02 1012.65 1012.30 1011.98 1011.70 1011.46 1011.29 1011.15 1011.06 1010.98 1010.92 1010.85 1010.76 1010.64 1010.51 1010.36 1010.21 1010.06 1009.94 1009.85 1009.79 1009.78 1009.79 1009.82 1009.84 1009.84 1009.79 1009.67 1009.47 1009.17 1008.77 1008.29
1014.84 1014.71 1014.61 1014.53 1014.47 1014.39 1014.28 1014.12 1013.91 1013.64 1013.32 1012.96 1012.59 1012.21 1011.86 1011.56 1011.31 1011.13 1011.01 1010.95 1010.94 1010.96 1010.98 1010.99 1010.98 1010.94 1010.86 1010.75 1010.62 1010.47 1010.32 1010.19 1010.09 1010.01 1009.96 1009.93 1009.90 1009.86 1009.79 1009.67 1009.49 1009.22 1008.88 1008.45
1014.89 1014.75 1014.63 1014.52 1014.41 1014.28 1014.12 1013.91 1013.65 1013.34 1012.99 1012.62 1012.24 1011.88 1011.55 1011.29 1011.09 1010.97 1010.93 1010.95 1011.02 1011.12 1011.22 1011.31 1011.37 1011.39 1011.35 1011.27 1011.14 1010.98 1010.80 1010.63 1010.46 1010.31 1010.19 1010.09 1010.01 1009.93 1009.83 1009.70 1009.53 1009.30 1009.00 1008.65
Thickness
5761 5766 5766 5765 5765 5765 5761 5764 5760 5766 5768 5772 5775 5776 5776 5778 5778 5776 5775 5774 5772 5770 5768 5765 5761 5758 5756 5753 5751 5747 5741 5737 5733 5730 5726 5722 5718 5714 5710 5707 5705 5702 5698 5696
5747 5756 5756 5755 5762 5763 5762 5763 5763 5764 5764 5775 5773 5773 5771 5772 5772 5771 5770 5770 5770 5768 5766 5762 5760 5757 5754 5751 5748 5744 5739 5735 5732 5727 5723 5719 5715 5711 5707 5704 5701 5698 5694 5692
5736 5748 5744 5741 5757 5759 5761 5765 5763 5758 5763 5768 5763 5760 5761 5763 5765 5765 5766 5766 5765 5765 5763 5760 5758 5755 5751 5748 5745 5740 5736 5732 5729 5725 5720 5716 5713 5708 5704 5700 5696 5692 5690 5687
5734 5731 5717 5749 5768 5766 5762 5763 5766 5762 5762 5761 5757 5756 5757 5758 5758 5758 5760 5761 5761 5760 5759 5758 5756 5753 5749 5746 5741 5737 5733 5729 5726 5722 5717 5713 5708 5704 5700 5696 5693 5689 5686 5683
5726 5723 5731 5747 5756 5756 5751 5750 5757 5755 5754 5755 5756 5754 5750 5750 5752 5752 5754 5755 5755 5757 5757 5754 5751 5748 5743 5739 5736 5731 5728 5725 5722 5717 5712 5708 5703 5699 5696 5692 5688 5685 5682 5680
5719 5714 5715 5737 5751 5756 5748 5735 5749 5750 5746 5747 5747 5742 5738 5740 5743 5745 5746 5747 5748 5749 5748 5745 5743 5741 5734 5730 5726 5724 5722 5719 5716 5712 5707 5702 5698 5694 5691 5686 5683 5681 5679 5675
5713 5711 5727 5739 5746 5745 5725 5724 5740 5742 5741 5740 5734 5733 5730 5732 5732 5733 5734 5736 5736 5735 5734 5732 5731 5728 5723 5719 5716 5716 5715 5711 5707 5703 5699 5695 5691 5687 5683 5680 5677 5673 5671 5669
5710 5705 5712 5731 5736 5728 5724 5731 5733 5733 5732 5729 5725 5724 5722 5720 5720 5721 5721 5721 5722 5721 5719 5719 5719 5715 5710 5707 5706 5705 5703 5700 5696 5692 5690 5688 5681 5677 5674 5671 5667 5665 5663 5661
5711 5709 5715 5725 5725 5725 5727 5724 5724 5724 5723 5721 5716 5712 5710 5709 5708 5709 5710 5709 5709 5707 5704 5703 5702 5701 5697 5694 5694 5692 5690 5687 5684 5681 5677 5675 5671 5668 5665 5662 5660 5659 5657 5655
5705 5709 5712 5716 5718 5719 5720 5717 5716 5715 5714 5711 5705 5702 5699 5698 5696 5696 5697 5697 5696 5695 5692 5689 5689 5686 5684 5683 5681 5679 5677 5674 5671 5668 5666 5663 5661 5660 5658 5656 5652 5650 5647 5645
5696 5701 5704 5705 5706 5708 5707 5707 5705 5704 5702 5699 5695 5691 5688 5685 5683 5683 5683 5683 5682 5680 5677 5675 5674 5671 5670 5669 5668 5666 5664 5661 5659 5658 5656 5651 5650 5647 5646 5643 5640 5634 5634 5632
5685 5690 5691 5689 5694 5696 5694 5692 5691 5689 5687 5686 5683 5679 5677 5674 5672 5671 5670 5669 5668 5666 5665 5663 5661 5659 5658 5657 5656 5654 5652 5649 5649 5646 5643 5641 5640 5638 5633 5629 5624 5620 5616 5612
5679 5684 5683 5682 5683 5685 5682 5680 5679 5676 5673 5671 5669 5667 5664 5662 5660 5659 5658 5657 5655 5654 5652 5651 5650 5647 5646 5644 5643 5641 5639 5636 5635 5633 5632 5631 5629 5626 5624 5620 5614 5610 5606 5602
5673 5673 5669 5670 5670 5671 5671 5668 5666 5663 5660 5658 5655 5654 5652 5650 5648 5647 5645 5645 5645 5643 5642 5641 5639 5636 5635 5633 5631 5629 5628 5625 5623 5622 5621 5619 5617 5614 5611 5608 5606 5604 5599 5592
5663 5664 5661 5660 5659 5658 5657 5654 5651 5648 5646 5644 5642 5640 5639 5637 5635 5634 5634 5634 5633 5632 5631 5630 5628 5626 5624 5623 5620 5618 5617 5616 5612 5610 5609 5607 5605 5602 5599 5595 5592 5589 5588 5585
5652 5652 5651 5648 5645 5644 5643 5640 5637 5635 5634 5632 5630 5628 5627 5626 5625 5624 5624 5623 5621 5621 5619 5618 5616 5614 5613 5611 5608 5606 5604 5599 5596 5597 5597 5595 5592 5588 5585 5581 5577 5575 5572 5570
5641 5638 5637 5636 5634 5633 5631 5629 5627 5626 5625 5622 5620 5618 5617 5616 5614 5613 5613 5613 5611 5609 5608 5606 5604 5603 5601 5598 5596 5596 5594 5591 5583 5584 5583 5581 5577 5573 5570 5566 5563 5561 5558 5555
5633 5631 5629 5627 5624 5620 5618 5618 5616 5615 5613 5612 5612 5609 5607 5605 5603 5602 5602 5601 5600 5599 5598 5596 5594 5590 5588 5586 5583 5582 5581 5580 5577 5573 5570 5567 5563 5559 5557 5554 5551 5548 5545 5543
5621 5619 5617 5615 5614 5612 5609 5607 5606 5605 5604 5602 5601 5598 5597 5595 5594 5593 5592 5590 5589 5588 5586 5585 5577 5577 5576 5574 5568 5568 5568 5566 5564 5561 5557 5551 5549 5547 5544 5541 5537 5534 5531 5529
5608 5607 5606 5604 5603 5601 5599 5597 5595 5594 5593 5591 5589 5587 5585 5584 5583 5582 5581 5580 5580 5578 5573 5570 5567 5566 5563 5561 5553 5556 5555 5553 5550 5547 5543 5540 5537 5533 5530 5527 5523 5520 5518 5515
5597 5596 5595 5594 5591 5590 5588 5586 5585 5583 5582 5580 5578 5576 5574 5573 5572 5571 5569 5570 5567 5563 5559 5555 5554 5553 5550 5544 5539 5543 5542 5539 5536 5533 5530 5527 5523 5519 5516 5512 5510 5507 5505 5503
5584 5584 5583 5582 5580 5578 5576 5576 5575 5573 5571 5569 5567 5566 5563 5562 5562 5560 5557 5555 5553 5545 5544 5546 5544 5535 5531 5525 5530 5530 5527 5525 5522 5519 5516 5513 5509 5506 5503 5500 5497 5496 5493 5491
5571 5571 5570 5569 5567 5565 5565 5565 5563 5561 5559 5557 5555 5552 5551 5549 5549 5547 5545 5543 5540 5531 5529 5529 5521 5515 5510 5514 5516 5515 5513 5511 5508 5505 5503 5500 5497 5493 5490 5488 5487 5485 5483 5482
5558 5557 5557 5556 5556 5554 5553 5552 5550 5548 5547 5545 5543 5541 5539 5538 5538 5537 5533 5526 5521 5516 5517 5511 5505 5501 5498 5504 5505 5503 5500 5497 5495 5493 5490 5488 5485 5482 5480 5479 5477 5476 5475 5474
5544 5544 5544 5543 5543 5543 5541 5540 5539 5537 5537 5535 5533 5531 5529 5527 5524 5522 5518 5514 5507 5504 5506 5502 5495 5491 5492 5494 5493 5490 5487 5484 5481 5478 5476 5474 5473 5471 5470 5469 5468 5467 5467 5467
5533 5534 5533 5530 5529 5528 5529 5528 5527 5525 5524 5523 5521 5519 5517 5514 5511 5508 5505 5502 5499 5494 5493 5492 5490 5485 5485 5483 5480 5477 5474 5471 5470 5467 5464 5462 5461 5460 5459 5459 5459 5459 5459 5460
5524 5524 5522 5522 5522 5519 5517 5515 5514 5512 5511 5509 5507 5505 5503 5501 5499 5496 5493 5491 5488 5486 5483 5481 5478 5476 5473 5471 5468 5465 5462 5459 5457 5455 5454 5452 5451 5451 5451 5451 5451 5452 5454 5456